QPF
0.07 0.07 0.07 0.08 0.07 0.07 0.05 0.07 0.06 0.05 0.03 0.01 0.01 0.02 0.03 0.04 0.08 0.08 0.04 0.01 0.00 0.00 0.01 0.01 0.01 0.00 0.00 0.01 0.01 0.01 0.01 0.01 0.01 0.01 0.00 0.00 0.00 0.00 0.00 0.00 0.00 0.00 0.00
0.07 0.07 0.05 0.05 0.05 0.04 0.03 0.03 0.03 0.03 0.03 0.03 0.04 0.04 0.02 0.02 0.04 0.06 0.03 0.02 0.01 0.00 0.00 0.01 0.02 0.01 0.00 0.01 0.01 0.01 0.01 0.01 0.01 0.01 0.00 0.00 0.00 0.00 0.00 0.00 0.00 0.00 0.00
0.05 0.05 0.05 0.04 0.03 0.02 0.03 0.04 0.04 0.04 0.05 0.05 0.05 0.05 0.04 0.02 0.03 0.04 0.05 0.04 0.01 0.00 0.00 0.01 0.01 0.02 0.01 0.01 0.00 0.01 0.01 0.01 0.01 0.01 0.00 0.00 0.00 0.00 0.00 0.00 0.00 0.00 0.00
0.03 0.04 0.05 0.04 0.02 0.02 0.03 0.04 0.04 0.05 0.07 0.07 0.06 0.06 0.05 0.04 0.03 0.03 0.04 0.03 0.03 0.02 0.01 0.00 0.01 0.00 0.01 0.01 0.01 0.01 0.01 0.01 0.01 0.00 0.00 0.00 0.00 0.00 0.00 0.00 0.00 0.00 0.00
0.03 0.02 0.03 0.05 0.04 0.03 0.02 0.03 0.04 0.05 0.07 0.07 0.05 0.05 0.03 0.04 0.02 0.01 0.01 0.01 0.02 0.02 0.01 0.00 0.00 0.00 0.00 0.01 0.01 0.03 0.02 0.01 0.01 0.01 0.01 0.01 0.01 0.01 0.01 0.00 0.00 0.00 0.00
0.03 0.03 0.02 0.03 0.03 0.05 0.05 0.04 0.08 0.07 0.06 0.06 0.04 0.07 0.04 0.02 0.02 0.01 0.01 0.01 0.01 0.01 0.01 0.01 0.01 0.01 0.00 0.01 0.01 0.01 0.01 0.01 0.01 0.01 0.01 0.00 0.01 0.01 0.00 0.00 0.00 0.00 0.00
0.03 0.04 0.04 0.07 0.05 0.06 0.06 0.05 0.06 0.07 0.06 0.05 0.08 0.11 0.07 0.04 0.03 0.03 0.02 0.01 0.02 0.02 0.02 0.02 0.02 0.03 0.02 0.01 0.01 0.01 0.01 0.01 0.02 0.02 0.01 0.01 0.01 0.01 0.01 0.00 0.00 0.00 0.00
0.02 0.03 0.05 0.06 0.07 0.09 0.09 0.08 0.08 0.10 0.10 0.06 0.09 0.14 0.13 0.13 0.07 0.03 0.03 0.02 0.03 0.02 0.01 0.01 0.02 0.04 0.04 0.03 0.01 0.00 0.01 0.02 0.02 0.03 0.02 0.01 0.01 0.01 0.01 0.01 0.01 0.00 0.00
0.03 0.03 0.04 0.05 0.07 0.06 0.08 0.08 0.09 0.10 0.11 0.08 0.07 0.09 0.11 0.12 0.08 0.06 0.04 0.03 0.03 0.03 0.02 0.02 0.01 0.01 0.02 0.03 0.03 0.01 0.01 0.01 0.01 0.02 0.03 0.02 0.01 0.01 0.01 0.01 0.01 0.01 0.01
0.07 0.05 0.05 0.05 0.06 0.06 0.10 0.07 0.09 0.10 0.12 0.09 0.08 0.07 0.06 0.10 0.11 0.11 0.08 0.04 0.03 0.03 0.02 0.01 0.00 0.01 0.02 0.02 0.03 0.02 0.01 0.01 0.01 0.01 0.02 0.02 0.01 0.01 0.01 0.01 0.02 0.02 0.02
0.11 0.09 0.08 0.08 0.07 0.08 0.08 0.08 0.13 0.10 0.09 0.08 0.09 0.08 0.07 0.09 0.09 0.10 0.12 0.07 0.05 0.02 0.01 0.01 0.01 0.01 0.02 0.03 0.04 0.02 0.01 0.01 0.01 0.01 0.01 0.02 0.02 0.02 0.01 0.02 0.02 0.03 0.03
0.11 0.10 0.10 0.10 0.09 0.10 0.09 0.06 0.08 0.07 0.09 0.09 0.09 0.08 0.08 0.08 0.05 0.07 0.08 0.07 0.05 0.02 0.02 0.02 0.03 0.03 0.03 0.03 0.03 0.03 0.02 0.01 0.01 0.01 0.01 0.01 0.01 0.02 0.02 0.01 0.01 0.02 0.03
0.08 0.09 0.11 0.11 0.10 0.10 0.08 0.07 0.08 0.09 0.08 0.08 0.06 0.07 0.06 0.05 0.04 0.05 0.06 0.06 0.06 0.04 0.03 0.02 0.03 0.03 0.02 0.02 0.02 0.02 0.01 0.01 0.00 0.00 0.00 0.00 0.01 0.01 0.01 0.02 0.02 0.03 0.03
0.07 0.09 0.11 0.11 0.09 0.09 0.08 0.10 0.08 0.07 0.08 0.07 0.06 0.09 0.08 0.04 0.05 0.04 0.04 0.05 0.06 0.06 0.06 0.04 0.02 0.01 0.01 0.01 0.02 0.02 0.01 0.01 0.00 0.01 0.01 0.01 0.01 0.01 0.01 0.01 0.01 0.01 0.01
0.08 0.10 0.11 0.13 0.11 0.10 0.10 0.10 0.07 0.08 0.09 0.06 0.06 0.09 0.07 0.04 0.04 0.03 0.04 0.05 0.05 0.06 0.06 0.05 0.02 0.01 0.01 0.01 0.02 0.01 0.01 0.02 0.01 0.01 0.01 0.01 0.01 0.00 0.01 0.01 0.01 0.01 0.00
0.10 0.11 0.11 0.12 0.12 0.11 0.11 0.12 0.09 0.08 0.10 0.09 0.09 0.10 0.09 0.06 0.06 0.04 0.04 0.04 0.04 0.04 0.04 0.02 0.02 0.01 0.02 0.02 0.05 0.02 0.03 0.05 0.04 0.03 0.02 0.01 0.01 0.01 0.00 0.00 0.00 0.00 0.00
0.11 0.11 0.11 0.12 0.13 0.13 0.13 0.15 0.11 0.10 0.10 0.11 0.11 0.12 0.12 0.10 0.09 0.07 0.06 0.06 0.07 0.07 0.07 0.03 0.03 0.03 0.05 0.04 0.05 0.04 0.03 0.04 0.05 0.06 0.03 0.02 0.01 0.01 0.01 0.00 0.00 0.00 0.00
0.12 0.11 0.12 0.14 0.15 0.17 0.18 0.17 0.12 0.11 0.11 0.12 0.12 0.14 0.14 0.13 0.13 0.10 0.11 0.11 0.12 0.12 0.11 0.09 0.07 0.06 0.08 0.08 0.10 0.07 0.03 0.03 0.03 0.06 0.04 0.03 0.02 0.01 0.01 0.00 0.00 0.00 0.01
0.13 0.11 0.10 0.11 0.12 0.15 0.16 0.17 0.16 0.14 0.13 0.12 0.14 0.15 0.18 0.19 0.18 0.17 0.14 0.12 0.11 0.10 0.12 0.12 0.08 0.08 0.07 0.07 0.10 0.08 0.05 0.06 0.04 0.05 0.05 0.04 0.02 0.01 0.01 0.01 0.01 0.01 0.01
0.16 0.13 0.13 0.13 0.13 0.15 0.17 0.17 0.17 0.16 0.15 0.13 0.16 0.18 0.20 0.20 0.19 0.18 0.15 0.13 0.11 0.11 0.13 0.11 0.08 0.08 0.09 0.09 0.11 0.11 0.10 0.09 0.09 0.07 0.07 0.05 0.03 0.02 0.02 0.01 0.01 0.01 0.01
0.15 0.16 0.16 0.18 0.18 0.17 0.16 0.17 0.18 0.19 0.22 0.22 0.20 0.18 0.17 0.18 0.19 0.17 0.15 0.15 0.14 0.14 0.14 0.13 0.11 0.12 0.11 0.11 0.11 0.11 0.11 0.09 0.08 0.06 0.06 0.05 0.04 0.05 0.06 0.07 0.07 0.05 0.03
0.13 0.14 0.16 0.18 0.18 0.16 0.17 0.16 0.19 0.21 0.23 0.22 0.22 0.22 0.21 0.21 0.20 0.18 0.18 0.16 0.14 0.13 0.13 0.13 0.11 0.10 0.11 0.11 0.11 0.11 0.11 0.11 0.10 0.08 0.08 0.07 0.06 0.08 0.10 0.12 0.12 0.09 0.06
0.10 0.10 0.10 0.12 0.13 0.13 0.16 0.13 0.15 0.17 0.20 0.20 0.20 0.21 0.19 0.17 0.15 0.12 0.13 0.14 0.12 0.12 0.11 0.10 0.10 0.08 0.08 0.09 0.10 0.10 0.10 0.10 0.10 0.08 0.10 0.10 0.08 0.08 0.08 0.08 0.07 0.05 0.03
0.08 0.09 0.10 0.11 0.12 0.11 0.13 0.11 0.11 0.13 0.15 0.18 0.18 0.17 0.16 0.14 0.14 0.15 0.14 0.14 0.12 0.13 0.12 0.10 0.08 0.08 0.08 0.07 0.07 0.07 0.09 0.09 0.09 0.08 0.09 0.08 0.06 0.05 0.05 0.05 0.05 0.04 0.03
0.10 0.10 0.12 0.13 0.13 0.11 0.12 0.10 0.10 0.10 0.10 0.12 0.13 0.15 0.15 0.14 0.16 0.17 0.16 0.16 0.15 0.15 0.12 0.10 0.09 0.08 0.07 0.06 0.06 0.06 0.07 0.07 0.06 0.06 0.06 0.06 0.04 0.03 0.03 0.03 0.03 0.03 0.04
0.13 0.12 0.11 0.11 0.11 0.07 0.07 0.06 0.06 0.06 0.07 0.09 0.10 0.12 0.14 0.13 0.12 0.13 0.15 0.16 0.16 0.15 0.15 0.12 0.10 0.07 0.05 0.04 0.04 0.04 0.05 0.06 0.05 0.04 0.04 0.05 0.05 0.05 0.05 0.03 0.03 0.03 0.03
MSLP
1015.01 1015.27 1015.49 1015.70 1015.90 1016.11 1016.31 1016.48 1016.61 1016.69 1016.71 1016.70 1016.69 1016.73 1016.86 1017.09 1017.45 1017.91 1018.43 1018.97 1019.48 1019.92 1020.27 1020.53 1020.71 1020.82 1020.91 1020.99 1021.07 1021.15 1021.24 1021.34 1021.43 1021.52 1021.61 1021.72 1021.84 1021.97 1022.10 1022.23 1022.34 1022.42 1022.48
1014.88 1015.17 1015.41 1015.64 1015.86 1016.08 1016.28 1016.46 1016.60 1016.70 1016.76 1016.80 1016.84 1016.92 1017.06 1017.29 1017.61 1018.01 1018.46 1018.91 1019.36 1019.75 1020.09 1020.37 1020.60 1020.78 1020.93 1021.06 1021.17 1021.26 1021.34 1021.40 1021.46 1021.52 1021.59 1021.69 1021.82 1021.97 1022.12 1022.27 1022.40 1022.49 1022.55
1014.72 1015.05 1015.34 1015.62 1015.88 1016.12 1016.35 1016.55 1016.71 1016.83 1016.93 1017.00 1017.09 1017.19 1017.34 1017.55 1017.80 1018.11 1018.45 1018.80 1019.14 1019.47 1019.77 1020.05 1020.31 1020.55 1020.77 1020.96 1021.12 1021.24 1021.33 1021.38 1021.41 1021.45 1021.51 1021.59 1021.72 1021.87 1022.04 1022.21 1022.35 1022.45 1022.52
1014.49 1014.86 1015.22 1015.56 1015.88 1016.18 1016.44 1016.67 1016.87 1017.02 1017.15 1017.27 1017.38 1017.50 1017.64 1017.81 1018.00 1018.20 1018.41 1018.63 1018.86 1019.09 1019.33 1019.59 1019.86 1020.15 1020.42 1020.68 1020.90 1021.06 1021.18 1021.24 1021.28 1021.30 1021.35 1021.42 1021.54 1021.69 1021.86 1022.03 1022.17 1022.29 1022.36
1014.16 1014.57 1014.99 1015.40 1015.80 1016.16 1016.48 1016.76 1016.99 1017.19 1017.36 1017.51 1017.65 1017.79 1017.92 1018.05 1018.17 1018.28 1018.37 1018.45 1018.55 1018.67 1018.83 1019.03 1019.29 1019.60 1019.91 1020.23 1020.50 1020.72 1020.88 1020.98 1021.04 1021.08 1021.12 1021.19 1021.30 1021.43 1021.59 1021.75 1021.89 1022.01 1022.10
1013.74 1014.18 1014.65 1015.13 1015.59 1016.02 1016.40 1016.73 1017.01 1017.25 1017.46 1017.65 1017.83 1017.99 1018.13 1018.25 1018.31 1018.34 1018.33 1018.29 1018.26 1018.26 1018.32 1018.46 1018.68 1018.97 1019.30 1019.65 1019.97 1020.25 1020.47 1020.62 1020.72 1020.78 1020.84 1020.91 1021.01 1021.12 1021.26 1021.41 1021.54 1021.65 1021.75
1013.27 1013.71 1014.21 1014.73 1015.24 1015.73 1016.16 1016.54 1016.87 1017.15 1017.41 1017.65 1017.88 1018.08 1018.25 1018.36 1018.41 1018.39 1018.30 1018.17 1018.04 1017.93 1017.89 1017.93 1018.08 1018.33 1018.65 1019.01 1019.36 1019.69 1019.96 1020.17 1020.32 1020.43 1020.51 1020.60 1020.69 1020.79 1020.91 1021.02 1021.14 1021.25 1021.34
1012.82 1013.23 1013.72 1014.26 1014.80 1015.32 1015.80 1016.21 1016.58 1016.91 1017.21 1017.51 1017.78 1018.04 1018.25 1018.39 1018.45 1018.42 1018.29 1018.11 1017.89 1017.69 1017.55 1017.50 1017.57 1017.75 1018.02 1018.36 1018.72 1019.07 1019.38 1019.65 1019.86 1020.02 1020.15 1020.25 1020.35 1020.44 1020.53 1020.63 1020.72 1020.82 1020.91
1012.44 1012.81 1013.27 1013.80 1014.34 1014.87 1015.36 1015.80 1016.20 1016.56 1016.91 1017.24 1017.57 1017.87 1018.13 1018.32 1018.41 1018.40 1018.27 1018.06 1017.80 1017.54 1017.32 1017.19 1017.16 1017.26 1017.46 1017.74 1018.08 1018.43 1018.77 1019.07 1019.34 1019.55 1019.72 1019.86 1019.97 1020.06 1020.14 1020.22 1020.29 1020.37 1020.47
1012.18 1012.49 1012.91 1013.40 1013.92 1014.44 1014.92 1015.37 1015.78 1016.16 1016.53 1016.90 1017.26 1017.60 1017.91 1018.14 1018.28 1018.30 1018.20 1018.00 1017.74 1017.44 1017.18 1016.97 1016.86 1016.86 1016.98 1017.19 1017.47 1017.80 1018.13 1018.46 1018.76 1019.02 1019.24 1019.41 1019.54 1019.65 1019.72 1019.78 1019.84 1019.91 1020.00
1012.01 1012.28 1012.65 1013.10 1013.58 1014.07 1014.54 1014.98 1015.38 1015.76 1016.14 1016.51 1016.88 1017.25 1017.58 1017.85 1018.02 1018.09 1018.04 1017.88 1017.64 1017.35 1017.07 1016.82 1016.65 1016.57 1016.60 1016.72 1016.93 1017.20 1017.51 1017.83 1018.14 1018.43 1018.68 1018.89 1019.05 1019.17 1019.25 1019.30 1019.35 1019.41 1019.49
1011.87 1012.11 1012.44 1012.85 1013.30 1013.76 1014.21 1014.62 1015.01 1015.38 1015.74 1016.10 1016.46 1016.82 1017.15 1017.43 1017.65 1017.76 1017.77 1017.67 1017.48 1017.24 1016.98 1016.72 1016.52 1016.38 1016.33 1016.37 1016.49 1016.69 1016.94 1017.22 1017.52 1017.81 1018.08 1018.31 1018.49 1018.63 1018.72 1018.78 1018.83 1018.88 1018.96
1011.67 1011.89 1012.21 1012.59 1013.01 1013.45 1013.87 1014.27 1014.64 1014.99 1015.32 1015.65 1015.98 1016.31 1016.63 1016.91 1017.15 1017.31 1017.38 1017.37 1017.27 1017.11 1016.90 1016.68 1016.48 1016.31 1016.20 1016.16 1016.20 1016.30 1016.47 1016.69 1016.95 1017.21 1017.47 1017.71 1017.90 1018.05 1018.16 1018.23 1018.28 1018.33 1018.40
1011.30 1011.54 1011.85 1012.22 1012.63 1013.06 1013.47 1013.86 1014.21 1014.54 1014.84 1015.14 1015.43 1015.73 1016.03 1016.31 1016.57 1016.78 1016.93 1017.02 1017.03 1016.98 1016.87 1016.73 1016.56 1016.40 1016.25 1016.15 1016.10 1016.11 1016.18 1016.31 1016.50 1016.71 1016.93 1017.15 1017.34 1017.49 1017.60 1017.68 1017.74 1017.79 1017.86
1010.73 1010.98 1011.29 1011.67 1012.08 1012.51 1012.92 1013.31 1013.66 1013.98 1014.27 1014.54 1014.81 1015.09 1015.38 1015.67 1015.96 1016.24 1016.48 1016.68 1016.83 1016.91 1016.93 1016.89 1016.79 1016.66 1016.51 1016.36 1016.23 1016.15 1016.12 1016.14 1016.23 1016.36 1016.52 1016.70 1016.86 1017.00 1017.10 1017.18 1017.24 1017.29 1017.35
1009.96 1010.22 1010.54 1010.92 1011.33 1011.77 1012.20 1012.60 1012.96 1013.29 1013.59 1013.87 1014.14 1014.42 1014.72 1015.05 1015.39 1015.75 1016.10 1016.43 1016.72 1016.95 1017.11 1017.20 1017.19 1017.11 1016.98 1016.80 1016.61 1016.44 1016.30 1016.21 1016.19 1016.22 1016.29 1016.40 1016.51 1016.61 1016.70 1016.76 1016.81 1016.86 1016.91
1009.08 1009.33 1009.64 1010.02 1010.44 1010.88 1011.32 1011.75 1012.14 1012.50 1012.83 1013.14 1013.45 1013.78 1014.13 1014.51 1014.93 1015.38 1015.85 1016.31 1016.74 1017.12 1017.42 1017.63 1017.72 1017.71 1017.60 1017.42 1017.19 1016.94 1016.70 1016.51 1016.36 1016.28 1016.25 1016.27 1016.31 1016.35 1016.40 1016.44 1016.47 1016.50 1016.53
1008.23 1008.45 1008.74 1009.10 1009.51 1009.95 1010.40 1010.85 1011.28 1011.68 1012.07 1012.45 1012.83 1013.22 1013.65 1014.12 1014.63 1015.18 1015.76 1016.34 1016.89 1017.39 1017.81 1018.12 1018.31 1018.36 1018.28 1018.10 1017.85 1017.54 1017.23 1016.94 1016.69 1016.49 1016.35 1016.27 1016.22 1016.19 1016.18 1016.18 1016.18 1016.18 1016.20
1007.55 1007.73 1007.98 1008.31 1008.70 1009.12 1009.58 1010.04 1010.50 1010.96 1011.41 1011.87 1012.33 1012.82 1013.34 1013.90 1014.51 1015.15 1015.81 1016.48 1017.12 1017.71 1018.20 1018.59 1018.83 1018.93 1018.89 1018.72 1018.46 1018.13 1017.76 1017.39 1017.05 1016.76 1016.52 1016.33 1016.19 1016.08 1016.00 1015.94 1015.90 1015.87 1015.86
1007.18 1007.31 1007.52 1007.81 1008.15 1008.55 1008.99 1009.46 1009.95 1010.45 1010.96 1011.49 1012.05 1012.63 1013.24 1013.88 1014.56 1015.26 1015.98 1016.69 1017.36 1017.98 1018.50 1018.91 1019.19 1019.32 1019.30 1019.15 1018.90 1018.56 1018.17 1017.76 1017.36 1016.99 1016.67 1016.39 1016.15 1015.96 1015.81 1015.68 1015.59 1015.52 1015.48
1007.19 1007.28 1007.45 1007.69 1007.99 1008.36 1008.77 1009.23 1009.72 1010.25 1010.81 1011.41 1012.03 1012.67 1013.35 1014.05 1014.76 1015.49 1016.20 1016.90 1017.55 1018.13 1018.63 1019.03 1019.30 1019.43 1019.43 1019.30 1019.07 1018.75 1018.37 1017.96 1017.53 1017.12 1016.74 1016.38 1016.07 1015.80 1015.57 1015.38 1015.23 1015.12 1015.04
1007.59 1007.65 1007.79 1008.00 1008.27 1008.59 1008.97 1009.41 1009.89 1010.43 1011.01 1011.63 1012.28 1012.97 1013.67 1014.38 1015.09 1015.78 1016.44 1017.07 1017.64 1018.15 1018.57 1018.91 1019.14 1019.25 1019.26 1019.16 1018.97 1018.69 1018.35 1017.96 1017.55 1017.12 1016.71 1016.31 1015.94 1015.60 1015.30 1015.04 1014.83 1014.68 1014.56
1008.30 1008.38 1008.51 1008.70 1008.95 1009.24 1009.59 1009.99 1010.45 1010.96 1011.53 1012.15 1012.80 1013.48 1014.16 1014.84 1015.49 1016.11 1016.67 1017.19 1017.64 1018.03 1018.35 1018.60 1018.77 1018.86 1018.87 1018.80 1018.65 1018.43 1018.15 1017.81 1017.44 1017.03 1016.61 1016.19 1015.78 1015.40 1015.04 1014.73 1014.47 1014.26 1014.10
1009.27 1009.38 1009.53 1009.73 1009.96 1010.23 1010.54 1010.90 1011.32 1011.79 1012.33 1012.91 1013.52 1014.15 1014.78 1015.39 1015.95 1016.45 1016.90 1017.28 1017.59 1017.85 1018.05 1018.20 1018.30 1018.36 1018.37 1018.33 1018.23 1018.08 1017.88 1017.61 1017.29 1016.93 1016.53 1016.11 1015.68 1015.26 1014.87 1014.51 1014.20 1013.94 1013.74
1010.37 1010.54 1010.73 1010.94 1011.17 1011.42 1011.70 1012.02 1012.39 1012.82 1013.29 1013.81 1014.36 1014.92 1015.47 1015.98 1016.43 1016.82 1017.14 1017.38 1017.56 1017.69 1017.78 1017.85 1017.89 1017.92 1017.93 1017.92 1017.87 1017.79 1017.65 1017.46 1017.21 1016.89 1016.53 1016.13 1015.70 1015.27 1014.85 1014.46 1014.11 1013.80 1013.55
1011.53 1011.76 1011.99 1012.22 1012.46 1012.69 1012.95 1013.22 1013.54 1013.90 1014.31 1014.76 1015.23 1015.71 1016.17 1016.58 1016.93 1017.21 1017.41 1017.54 1017.62 1017.65 1017.66 1017.65 1017.65 1017.66 1017.68 1017.69 1017.69 1017.66 1017.58 1017.45 1017.25 1016.99 1016.67 1016.29 1015.88 1015.45 1015.01 1014.60 1014.21 1013.86 1013.56
Thickness
5767 5765 5762 5760 5759 5757 5756 5756 5755 5754 5754 5753 5753 5752 5751 5749 5744 5740 5736 5734 5732 5730 5728 5726 5725 5724 5723 5721 5720 5719 5718 5717 5716 5715 5714 5713 5712 5711 5710 5709 5708 5707 5706
5767 5765 5763 5762 5761 5760 5759 5757 5756 5755 5754 5753 5752 5751 5750 5748 5745 5741 5737 5734 5732 5731 5729 5727 5726 5725 5724 5722 5721 5720 5718 5717 5716 5715 5714 5713 5712 5711 5710 5709 5708 5707 5706
5768 5766 5764 5762 5762 5761 5760 5758 5757 5755 5754 5753 5751 5750 5750 5748 5746 5743 5739 5736 5734 5732 5730 5728 5727 5726 5725 5723 5722 5721 5719 5718 5717 5716 5715 5713 5712 5711 5710 5710 5708 5707 5706
5767 5766 5765 5764 5763 5762 5760 5758 5756 5754 5753 5752 5750 5750 5750 5748 5746 5744 5742 5740 5737 5735 5732 5730 5729 5727 5726 5725 5723 5722 5720 5719 5718 5717 5715 5714 5713 5712 5711 5710 5709 5708 5707
5766 5765 5765 5765 5763 5762 5760 5759 5756 5754 5751 5751 5751 5750 5750 5748 5748 5747 5745 5743 5741 5739 5736 5733 5731 5729 5728 5726 5725 5723 5722 5720 5719 5718 5716 5715 5714 5713 5712 5711 5710 5708 5707
5766 5765 5764 5763 5763 5762 5760 5758 5755 5754 5752 5751 5751 5751 5751 5751 5749 5749 5748 5747 5745 5743 5740 5737 5734 5731 5730 5728 5727 5725 5724 5722 5721 5719 5718 5717 5716 5714 5713 5712 5711 5709 5708
5765 5764 5764 5763 5762 5760 5759 5758 5755 5752 5751 5752 5747 5745 5748 5752 5751 5750 5750 5749 5748 5746 5744 5741 5738 5735 5733 5731 5730 5728 5726 5725 5723 5721 5720 5719 5717 5716 5715 5713 5712 5710 5709
5764 5763 5761 5761 5760 5758 5757 5756 5754 5751 5751 5752 5746 5739 5736 5739 5746 5752 5751 5750 5750 5749 5747 5745 5742 5740 5738 5735 5733 5731 5729 5727 5725 5724 5722 5721 5719 5718 5716 5715 5713 5712 5711
5763 5763 5761 5760 5759 5758 5755 5755 5754 5750 5747 5750 5750 5743 5734 5730 5738 5747 5751 5752 5751 5749 5749 5748 5746 5744 5742 5740 5738 5735 5732 5730 5728 5726 5725 5723 5721 5720 5718 5716 5715 5713 5712
5762 5761 5760 5759 5758 5758 5756 5755 5754 5752 5748 5744 5747 5749 5748 5744 5736 5736 5744 5750 5751 5750 5750 5750 5749 5747 5745 5744 5741 5739 5736 5733 5730 5728 5727 5725 5723 5721 5719 5718 5716 5715 5713
5760 5759 5759 5758 5757 5757 5756 5754 5754 5752 5749 5746 5745 5746 5746 5746 5744 5737 5734 5742 5747 5750 5751 5751 5750 5749 5748 5746 5744 5741 5739 5736 5733 5730 5728 5726 5724 5723 5721 5719 5717 5716 5715
5757 5757 5757 5757 5756 5756 5755 5754 5753 5751 5749 5747 5746 5746 5745 5742 5741 5741 5737 5739 5741 5747 5751 5752 5751 5750 5749 5747 5746 5744 5741 5738 5735 5732 5730 5728 5725 5723 5721 5720 5718 5716 5715
5755 5755 5756 5755 5755 5755 5755 5754 5752 5751 5749 5746 5745 5746 5747 5747 5747 5745 5741 5739 5741 5745 5749 5751 5752 5751 5749 5748 5746 5745 5742 5739 5736 5733 5730 5728 5725 5723 5721 5719 5717 5716 5714
5755 5756 5755 5754 5754 5754 5754 5753 5752 5750 5748 5746 5746 5746 5746 5747 5748 5747 5744 5740 5735 5738 5742 5746 5751 5751 5750 5748 5745 5743 5740 5737 5735 5732 5730 5727 5725 5723 5720 5718 5716 5714 5713
5756 5755 5754 5752 5752 5753 5752 5752 5750 5748 5747 5746 5745 5745 5744 5746 5747 5748 5747 5744 5736 5728 5730 5739 5743 5748 5747 5745 5743 5740 5738 5736 5733 5730 5728 5726 5723 5721 5719 5716 5714 5712 5710
5755 5754 5752 5751 5751 5751 5750 5749 5747 5747 5745 5744 5744 5743 5743 5744 5744 5745 5745 5744 5741 5735 5729 5736 5738 5742 5743 5742 5739 5737 5735 5733 5731 5728 5726 5724 5721 5719 5716 5714 5712 5709 5707
5752 5751 5750 5749 5748 5748 5747 5746 5744 5744 5743 5742 5742 5741 5740 5741 5740 5740 5740 5739 5738 5735 5728 5731 5735 5737 5736 5735 5733 5732 5731 5729 5728 5726 5724 5722 5719 5716 5713 5711 5708 5705 5703
5750 5749 5747 5746 5746 5745 5744 5743 5741 5742 5740 5739 5739 5738 5736 5737 5736 5735 5735 5734 5732 5732 5727 5723 5726 5728 5729 5728 5727 5726 5726 5725 5724 5722 5721 5718 5715 5711 5708 5706 5703 5701 5698
5746 5745 5744 5742 5742 5741 5740 5739 5739 5738 5738 5737 5736 5734 5733 5732 5730 5730 5728 5727 5726 5726 5724 5721 5719 5721 5721 5722 5720 5719 5719 5718 5718 5717 5715 5712 5709 5706 5703 5700 5698 5695 5692
5741 5740 5739 5738 5737 5736 5735 5735 5734 5732 5732 5732 5731 5730 5728 5727 5725 5724 5723 5721 5720 5718 5716 5714 5712 5712 5712 5714 5712 5709 5708 5709 5709 5710 5707 5704 5702 5699 5697 5694 5692 5689 5686
5738 5736 5735 5733 5731 5730 5729 5728 5728 5727 5725 5724 5723 5722 5721 5720 5719 5718 5717 5714 5713 5710 5708 5705 5703 5703 5702 5701 5699 5700 5697 5698 5699 5698 5696 5695 5694 5691 5689 5687 5684 5681 5678
5733 5731 5729 5727 5724 5723 5722 5722 5721 5720 5718 5717 5716 5715 5714 5713 5712 5710 5709 5707 5705 5702 5700 5697 5695 5692 5691 5691 5690 5689 5687 5685 5684 5687 5684 5683 5685 5682 5681 5680 5677 5674 5670
5726 5724 5722 5720 5717 5715 5715 5715 5714 5713 5711 5709 5708 5707 5707 5706 5704 5703 5701 5699 5697 5695 5693 5691 5687 5685 5682 5682 5680 5679 5677 5674 5673 5675 5674 5672 5673 5671 5671 5670 5668 5664 5661
5719 5717 5715 5713 5711 5708 5707 5707 5706 5705 5702 5700 5699 5698 5697 5696 5696 5694 5693 5691 5689 5687 5686 5683 5681 5678 5675 5673 5672 5670 5668 5667 5667 5666 5665 5660 5660 5658 5660 5659 5656 5654 5650
5712 5710 5708 5706 5704 5701 5700 5700 5700 5697 5694 5691 5689 5688 5687 5686 5685 5686 5685 5682 5680 5677 5676 5674 5672 5669 5666 5663 5661 5659 5656 5654 5651 5651 5651 5647 5646 5646 5646 5645 5643 5640 5637
5705 5703 5700 5698 5695 5692 5691 5691 5691 5690 5686 5683 5680 5678 5676 5676 5676 5676 5676 5674 5670 5668 5666 5665 5662 5659 5656 5653 5650 5647 5643 5640 5637 5635 5636 5632 5631 5629 5629 5630 5628 5625 5622